IRIDIUM 106 1 41917U 17003A 26106.48988676 -.00000003 00000+0 -81555-5 0 9997 2 41917 86.3929 114.3567 0002566 91.3341 268.8149 14.34217231484369 IRIDIUM 103 1 41918U 17003B 26106.47720062 .00000055 00000+0 12480-4 0 9995 2 41918 86.3925 114.2619 0002158 97.8817 262.2623 14.34217782484387 IRIDIUM 109 1 41919U 17003C 26106.48354454 .00000035 00000+0 54844-5 0 9994 2 41919 86.3927 114.3178 0002266 92.4326 267.7129 14.34217773484355 IRIDIUM 102 1 41920U 17003D 26106.59136911 .00000031 00000+0 39232-5 0 9994 2 41920 86.3925 114.1974 0002321 89.4323 270.7138 14.34217429484455 IRIDIUM 105 1 41921U 17003E 26106.69187308 .00000158 00000+0 49185-4 0 9999 2 41921 86.3928 82.5824 0002242 88.5789 271.5664 14.34399199486325 IRIDIUM 104 1 41922U 17003F 26106.53428389 -.00000035 00000+0 -19666-4 0 9997 2 41922 86.3930 114.2631 0001928 93.9905 266.1511 14.34217317484430 IRIDIUM 114 1 41923U 17003G 26106.54062756 .00000058 00000+0 13606-4 0 9992 2 41923 86.3926 114.2438 0002146 94.7114 265.4327 14.34217970484415 IRIDIUM 108 1 41924U 17003H 26106.63868527 .00000138 00000+0 42138-4 0 9994 2 41924 86.3925 82.4963 0002306 84.6063 275.5396 14.34217404486280 IRIDIUM 112 1 41925U 17003J 26106.52794244 .00000060 00000+0 14473-4 0 9992 2 41925 86.3920 114.0938 0002150 92.1452 267.9990 14.34217939484436 IRIDIUM 111 1 41926U 17003K 26106.72456329 .00000038 00000+0 64081-5 0 9990 2 41926 86.3925 114.0810 0002284 92.7933 267.3524 14.34217732484448 IRIDIUM 113 1 42803U 17039A 26106.63475845 .00000012 00000+0 -28287-5 0 9999 2 42803 86.4003 347.9114 0001787 86.0763 274.0637 14.34217710462362 IRIDIUM 123 1 42804U 17039B 26106.46693279 .00000037 00000+0 61657-5 0 9998 2 42804 86.4018 19.4257 0002293 88.9352 271.2107 14.34217786461101 IRIDIUM 120 1 42805U 17039C 26106.62841757 .00000001 00000+0 -67554-5 0 9997 2 42805 86.3991 347.7045 0002189 83.3525 276.7920 14.34217404462356 IRIDIUM 115 1 42806U 17039D 26106.41413204 .00000223 00000+0 60318-4 0 9992 2 42806 86.4533 347.9148 0002458 90.0710 270.0773 14.43280578465354 IRIDIUM 118 1 42807U 17039E 26106.49864706 .00000177 00000+0 56197-4 0 9996 2 42807 86.4018 19.4108 0002144 85.4244 274.7196 14.34218770461106 IRIDIUM 117 1 42808U 17039F 26106.09906235 .00000062 00000+0 14963-4 0 9995 2 42808 86.4018 19.5360 0002265 88.9427 271.2028 14.34218071461079 IRIDIUM 126 1 42809U 17039G 26106.68258007 .00000027 00000+0 24509-5 0 9997 2 42809 86.4018 19.3424 0002096 88.3837 271.7599 14.34216903461137 IRIDIUM 124 1 42810U 17039H 26106.55601863 .00000234 00000+0 63581-4 0 9999 2 42810 86.4468 316.1487 0002242 89.3926 270.7532 14.43293324466221 IRIDIUM 128 1 42811U 17039J 26106.60355084 -.00000003 00000+0 -80466-5 0 9995 2 42811 86.3972 50.8851 0002341 84.2555 275.8908 14.34217518461151 IRIDIUM 121 1 42812U 17039K 26106.49232111 .00000179 00000+0 56776-4 0 9996 2 42812 86.4019 19.4491 0002277 83.3332 276.8123 14.34215459460989 IRIDIUM 133 1 42955U 17061A 26106.56549380 .00000070 00000+0 17809-4 0 9990 2 42955 86.3978 51.0169 0002301 86.9409 273.2050 14.34216878445941 IRIDIUM 100 1 42956U 17061B 26106.55915238 .00000035 00000+0 54417-5 0 9997 2 42956 86.3975 50.9396 0002298 86.9259 273.2200 14.34217356445946 IRIDIUM 122 1 42957U 17061C 26106.59720784 .00000077 00000+0 20566-4 0 9995 2 42957 86.3973 50.9237 0002268 88.0374 272.1081 14.34217874445958 IRIDIUM 129 1 42958U 17061D 26106.34350468 .00000161 00000+0 50254-4 0 9998 2 42958 86.3976 51.0962 0001956 82.8166 277.3252 14.34218571445933 IRIDIUM 119 1 42959U 17061E 26106.59086525 .00000006 00000+0 -47530-5 0 9999 2 42959 86.3972 50.9886 0002046 88.3786 271.7644 14.34217227445988 IRIDIUM 107 1 42960U 17061F 26106.40059598 .00000162 00000+0 50712-4 0 9998 2 42960 86.3977 51.0888 0002399 91.8980 268.2491 14.34219874445964 IRIDIUM 132 1 42961U 17061G 26106.54646625 .00000139 00000+0 42504-4 0 9991 2 42961 86.3977 51.0077 0002292 86.9328 273.2130 14.34217471445987 IRIDIUM 136 1 42962U 17061H 26106.57818064 .00000161 00000+0 50428-4 0 9992 2 42962 86.3977 51.0008 0002252 88.8612 271.2842 14.34217691446001 IRIDIUM 139 1 42963U 17061J 26106.58452321 .00000175 00000+0 55487-4 0 9999 2 42963 86.3977 51.0591 0002363 86.2890 273.8576 14.34217962446016 IRIDIUM 125 1 42964U 17061K 26106.57183700 -.00000022 00000+0 -15020-4 0 9993 2 42964 86.3976 51.1246 0002000 100.4388 259.7033 14.34217348446023 IRIDIUM 135 1 43070U 17083A 26106.40642566 -.00000008 00000+0 -98601-5 0 9999 2 43070 86.3998 347.8475 0002072 84.9598 275.1835 14.34217800435295 IRIDIUM 138 1 43071U 17083B 26106.64110102 -.00000016 00000+0 -12639-4 0 9997 2 43071 86.4013 347.4360 0001716 90.2457 269.8936 14.34217651435311 IRIDIUM 116 1 43072U 17083C 26106.60938992 .00000070 00000+0 18090-4 0 9994 2 43072 86.4000 347.7499 0002422 83.1138 277.0334 14.34217577435349 IRIDIUM 130 1 43073U 17083D 26106.36837088 .00000170 00000+0 53594-4 0 9991 2 43073 86.4009 348.1196 0002419 88.5269 271.6204 14.34217873435253 IRIDIUM 151 1 43074U 17083E 26106.41276859 .00000099 00000+0 28240-4 0 9991 2 43074 86.4002 347.8883 0002226 83.9652 276.1798 14.34217935435287 IRIDIUM 134 1 43075U 17083F 26106.38105560 .00000065 00000+0 16293-4 0 9996 2 43075 86.4005 347.9087 0002285 87.8238 272.3220 14.34217984435244 IRIDIUM 137 1 43076U 17083G 26106.60304876 .00000174 00000+0 55150-4 0 9999 2 43076 86.4006 347.9076 0002390 73.9311 286.2147 14.34218656435349 IRIDIUM 141 1 43077U 17083H 26106.17809209 -.00000018 00000+0 -13558-4 0 9997 2 43077 86.3998 347.9189 0001961 84.5823 275.5597 14.34217476435285 IRIDIUM 153 1 43078U 17083J 26106.54888144 -.00000014 00000+0 -12221-4 0 9996 2 43078 86.3945 316.2607 0001867 93.0356 267.1053 14.34217619436445 IRIDIUM 131 1 43079U 17083K 26106.37471299 -.00000029 00000+0 -17436-4 0 9996 2 43079 86.4005 348.0188 0001986 83.8767 276.2655 14.34217324435245 IRIDIUM 144 1 43249U 18030A 26106.55522432 .00000164 00000+0 51344-4 0 9998 2 43249 86.3944 316.1889 0002288 86.6426 273.5031 14.34218527421304 IRIDIUM 149 1 43250U 18030B 26106.49179851 .00000200 00000+0 64220-4 0 9994 2 43250 86.3944 316.1832 0002055 88.0444 272.0987 14.34218341421311 IRIDIUM 157 1 43251U 18030C 26106.51082664 .00000109 00000+0 32025-4 0 9999 2 43251 86.3949 316.2270 0002172 88.8935 271.2509 14.34217967421298 IRIDIUM 140 1 43252U 18030D 26106.52985426 .00000022 00000+0 76275-6 0 9990 2 43252 86.3944 316.2315 0002099 89.2433 270.9003 14.34217690421355 IRIDIUM 145 1 43253U 18030E 26106.51717019 .00000177 00000+0 56264-4 0 9996 2 43253 86.3945 316.2095 0002455 85.5464 274.6012 14.34218939421281 IRIDIUM 146 1 43254U 18030F 26106.49814108 .00000032 00000+0 42775-5 0 9994 2 43254 86.3945 316.2300 0002241 87.3881 272.7572 14.34218006421293 IRIDIUM 148 1 43255U 18030G 26106.53619652 .00000174 00000+0 55230-4 0 9993 2 43255 86.3947 316.2562 0002129 84.9074 275.2365 14.34215418421335 IRIDIUM 142 1 43256U 18030H 26106.50448025 .00000116 00000+0 34286-4 0 9999 2 43256 86.3945 316.1606 0002365 86.6776 273.4691 14.34214896421298 IRIDIUM 150 1 43257U 18030J 26106.54254003 .00000175 00000+0 55484-4 0 9993 2 43257 86.3947 316.2590 0002203 88.5982 271.5466 14.34217934421324 IRIDIUM 143 1 43258U 18030K 26106.52351286 .00000164 00000+0 51350-4 0 9999 2 43258 86.3949 316.3571 0002290 87.2870 272.8588 14.34217768421251 IRIDIUM 161 1 43478U 18047C 26106.53387532 .00000129 00000+0 32414-4 0 9996 2 43478 86.4446 114.2572 0002021 87.5119 272.6313 14.43281244416242 IRIDIUM 152 1 43479U 18047D 26106.49622963 .00000030 00000+0 36904-5 0 9992 2 43479 86.3920 114.1335 0002166 92.1991 267.9453 14.34217639413645 IRIDIUM 147 1 43480U 18047E 26106.50257190 -.00000009 00000+0 -10246-4 0 9990 2 43480 86.3926 114.1350 0002264 89.4816 270.6640 14.34217468413643 IRIDIUM 110 1 43481U 18047F 26106.71821927 .00000033 00000+0 47746-5 0 9990 2 43481 86.3926 114.1350 0001907 90.5684 269.5730 14.34217779413667 IRIDIUM 162 1 43482U 18047G 26106.52757611 .00000027 00000+0 21340-5 0 9993 2 43482 86.4446 114.1516 0002325 93.6351 266.5116 14.43278583416231 IRIDIUM 160 1 43569U 18061A 26106.45475080 .00000027 00000+0 25333-5 0 9990 2 43569 86.3925 82.6082 0002172 85.4226 274.7218 14.34217663404520 IRIDIUM 166 1 43570U 18061B 26106.68943464 .00000159 00000+0 49639-4 0 9993 2 43570 86.3923 82.4611 0002409 87.2461 272.9010 14.34214111404581 IRIDIUM 158 1 43571U 18061C 26106.44840825 .00000224 00000+0 72891-4 0 9994 2 43571 86.3926 82.5721 0002232 91.4410 268.7041 14.34217833404517 IRIDIUM 165 1 43572U 18061D 26106.40400903 .00000175 00000+0 55524-4 0 9999 2 43572 86.3926 82.6357 0002391 86.2962 273.8507 14.34216806404539 IRIDIUM 155 1 43573U 18061E 26106.43572302 .00000057 00000+0 13273-4 0 9990 2 43573 86.3925 82.4946 0002335 91.0314 269.1149 14.34217917404505 IRIDIUM 154 1 43574U 18061F 26106.62600161 .00000189 00000+0 60316-4 0 9993 2 43574 86.3925 82.5456 0002415 85.2230 274.9241 14.34218255404585 IRIDIUM 163 1 43575U 18061G 26106.67673505 .00000154 00000+0 47919-4 0 9997 2 43575 86.3924 82.4415 0002179 89.9690 270.1756 14.34215059404563 IRIDIUM 156 1 43576U 18061H 26106.44206523 -.00000006 00000+0 -92116-5 0 9993 2 43576 86.3927 82.5474 0002264 90.1806 269.9649 14.34217234404521 IRIDIUM 164 1 43577U 18061J 26106.63234346 .00000056 00000+0 12896-4 0 9998 2 43577 86.3926 82.5068 0002334 83.5705 276.5757 14.34217804404596 IRIDIUM 159 1 43578U 18061K 26106.67039950 .00000160 00000+0 49936-4 0 9998 2 43578 86.3923 82.4289 0002160 87.1990 272.9453 14.34216824404562 IRIDIUM 180 1 43922U 19002A 26106.46058980 .00000033 00000+0 47958-5 0 9990 2 43922 86.4017 19.3892 0002085 82.9101 277.2332 14.34217748380149 IRIDIUM 176 1 43923U 19002B 26106.51227794 .00000512 00000+0 77270-4 0 9999 2 43923 86.6139 19.3198 0002597 83.3661 276.7852 14.72256649390170 IRIDIUM 168 1 43924U 19002C 26106.45424720 .00000203 00000+0 65578-4 0 9996 2 43924 86.4020 19.4674 0002179 86.3818 273.7627 14.34218357380124 IRIDIUM 173 1 43925U 19002D 26106.02294959 .00000148 00000+0 45890-4 0 9992 2 43925 86.4017 19.5389 0002146 87.8332 272.3109 14.34218897380046 IRIDIUM 169 1 43926U 19002E 26106.55628080 .00000184 00000+0 53684-4 0 9997 2 43926 86.4232 50.9470 0002566 99.9040 260.2448 14.38608821381364 IRIDIUM 172 1 43927U 19002F 26106.50498804 .00000032 00000+0 42353-5 0 9996 2 43927 86.4020 19.3454 0002164 83.1212 277.0230 14.34217729380128 IRIDIUM 175 1 43928U 19002G 26106.58496272 .00000228 00000+0 61457-4 0 9994 2 43928 86.4498 316.2903 0005313 75.9576 284.2216 14.43589615390094 IRIDIUM 171 1 43929U 19002H 26106.13711833 -.00000006 00000+0 -92366-5 0 9999 2 43929 86.4027 19.7982 0002376 85.1319 275.0148 14.34217723380065 IRIDIUM 170 1 43930U 19002J 26106.17862338 .00000574 00000+0 87145-4 0 9998 2 43930 86.6138 19.4621 0002328 83.1171 277.0311 14.72253277390139 IRIDIUM 167 1 43931U 19002K 26106.68892347 .00000078 00000+0 20913-4 0 9997 2 43931 86.4018 19.2905 0002535 86.9539 273.1946 14.34218092380142 IRIDIUM 181 1 56726U 23068S 26106.47262152 .00000178 00000+0 46971-4 0 9995 2 56726 86.4463 82.5876 0002285 79.6242 280.5216 14.43312058153534 IRIDIUM 177 1 56727U 23068T 26106.39959507 .00000647 00000+0 81633-4 0 9999 2 56727 86.2007 358.1353 0002171 89.9349 270.2121 14.80219302157225 IRIDIUM 174 1 56728U 23068U 26106.70999809 .00000536 00000+0 81071-4 0 9997 2 56728 86.6147 19.3814 0002147 86.0704 274.0758 14.72262665156979 IRIDIUM 178 1 56729U 23068V 26106.59143323 .00000707 00000+0 89566-4 0 9994 2 56729 86.6546 51.0890 0002685 81.7539 278.3987 14.80236694157250 IRIDIUM 179 1 56730U 23068W 26106.58605397 .00000702 00000+0 88920-4 0 9997 2 56730 86.6770 59.8904 0002971 87.8584 272.2978 14.80236515157253